Location: D�pe
(52.6057°N, 8.1808°E)
Time: 07:41:49
(UTC+00:00)

Cosmos 1892 - Pass Details

Date: 29 October 2020
Orbit: 504 x 524 km, 82.5° (Epoch: 01 December)

Event Time Altitude Azimuth Distance (km) Brightness Sun altitude
Rises 16:51:55 0° 354° (N) 2,670 6.3 -8.1°
Reaches altitude 10° 16:54:12 10° 4° (N) 1,778 5.3 -8.4°
Maximum altitude 16:57:50 36° 72° (ENE) 845 3.3 -8.9°
Drops below altitude 10° 17:01:26 10° 140° (SE) 1,765 5.1 -9.5°
Sets 17:03:42 0° 149° (SSE) 2,649 6.1 -9.8°
